| time (UTC) | temp F | wind direction | speed MPH | gust MPH | rain 1hr in | rain 24hr in | rain mn in | humidity % | barometer mb |
| 20260504013031 | 72 | 333 | 5.0 | 9.0 | 0.00 | 0.00 | 0.00 | 20 | 1009.7 |
| 20260504011532 | 73 | 311 | 6.0 | 11.0 | 0.00 | 0.00 | 0.00 | 21 | 1009.9 |
| 20260504010032 | 73 | 301 | 7.0 | 13.0 | 0.00 | 0.00 | 0.00 | 16 | 1009.9 |
| 20260504004534 | 73 | 287 | 7.0 | 18.0 | 0.00 | 0.00 | 0.00 | 15 | 1009.9 |
| 20260504003029 | 75 | 299 | 11.0 | 15.0 | 0.00 | 0.00 | 0.00 | 15 | 1010.2 |
| 20260504001532 | 76 | 307 | 13.0 | 18.0 | 0.00 | 0.00 | 0.00 | 14 | 1010.2 |
| 20260504000029 | 76 | 306 | 10.0 | 17.0 | 0.00 | 0.00 | 0.00 | 14 | 1010.3 |
| 20260503234532 | 76 | 330 | 14.0 | 20.0 | 0.00 | 0.00 | 0.00 | 14 | 1010.3 |
| 20260503233029 | 76 | 291 | 13.0 | 19.0 | 0.00 | 0.00 | 0.00 | 16 | 1010.5 |
| 20260503231532 | 77 | 292 | 3.0 | 16.0 | 0.00 | 0.00 | 0.00 | 17 | 1010.5 |
| 20260503230032 | 76 | 301 | 6.0 | 18.0 | 0.00 | 0.00 | 0.00 | 17 | 1010.7 |
| 20260503224529 | 76 | 343 | 8.0 | 17.0 | 0.00 | 0.00 | 0.00 | 18 | 1011.1 |
| 20260503223028 | 76 | 288 | 5.0 | 15.0 | 0.00 | 0.00 | 0.00 | 16 | 1011.1 |
| 20260503221532 | 76 | 306 | 11.0 | 18.0 | 0.00 | 0.00 | 0.00 | 17 | 1011.4 |
| 20260503220032 | 76 | 290 | 6.0 | 14.0 | 0.00 | 0.00 | 0.00 | 19 | 1011.6 |
| 20260503214540 | 76 | 288 | 9.0 | 17.0 | 0.00 | 0.00 | 0.00 | 19 | 1011.8 |
| 20260503213030 | 75 | 279 | 10.0 | 24.0 | 0.00 | 0.00 | 0.00 | 20 | 1012.1 |
| 20260503211529 | 75 | 268 | 9.0 | 15.0 | 0.00 | 0.00 | 0.00 | 21 | 1012.3 |
| 20260503210034 | 75 | 305 | 11.0 | 16.0 | 0.00 | 0.00 | 0.00 | 21 | 1012.7 |
| 20260503204534 | 75 | 294 | 9.0 | 21.0 | 0.00 | 0.00 | 0.00 | 22 | 1012.8 |
| 20260503203029 | 74 | 271 | 8.0 | 16.0 | 0.00 | 0.00 | 0.00 | 23 | 1012.9 |
| 20260503201532 | 74 | 261 | 10.0 | 18.0 | 0.00 | 0.00 | 0.00 | 22 | 1013.1 |
| 20260503200041 | 73 | 202 | 5.0 | 16.0 | 0.00 | 0.00 | 0.00 | 24 | 1013.4 |
| 20260503194530 | 72 | 242 | 4.0 | 15.0 | 0.00 | 0.00 | 0.00 | 25 | 1013.8 |
| 20260503193036 | 72 | 303 | 6.0 | 15.0 | 0.00 | 0.00 | 0.00 | 24 | 1014.0 |
| 20260503191529 | 72 | 292 | 9.0 | 17.0 | 0.00 | 0.00 | 0.00 | 25 | 1014.2 |
| 20260503190031 | 72 | 262 | 6.0 | 17.0 | 0.00 | 0.00 | 0.00 | 27 | 1014.4 |
| 20260503184539 | 71 | 273 | 10.0 | 17.0 | 0.00 | 0.00 | 0.00 | 27 | 1014.4 |
| 20260503183030 | 71 | 284 | 8.0 | 14.0 | 0.00 | 0.00 | 0.00 | 28 | 1014.7 |
| 20260503181532 | 71 | 265 | 9.0 | 17.0 | 0.00 | 0.00 | 0.00 | 29 | 1015.0 |
| 20260503180044 | 70 | 298 | 8.0 | 16.0 | 0.00 | 0.00 | 0.00 | 32 | 1015.1 |
| 20260503174543 | 69 | 275 | 2.0 | 15.0 | 0.00 | 0.00 | 0.00 | 32 | 1015.3 |
| 20260503173039 | 69 | 183 | 4.0 | 16.0 | 0.00 | 0.00 | 0.00 | 32 | 1015.3 |
| 20260503171533 | 69 | 304 | 9.0 | 15.0 | 0.00 | 0.00 | 0.00 | 33 | 1015.5 |
| 20260503081539 | 43 | 295 | 3.0 | 4.0 | 0.00 | 0.00 | 0.00 | 77 | 1018.4 |
| 20260503071529 | 48 | 155 | 1.0 | 6.0 | 0.00 | 0.00 | 0.00 | 74 | 1018.5 |
| 20260503054530 | 50 | 73 | 7.0 | 12.0 | 0.00 | 0.00 | 0.00 | 70 | 1018.1 |
| 20260503053030 | 51 | 0 | 0.0 | 10.0 | 0.00 | 0.00 | 0.00 | 70 | 1018.7 |
| 20260503051536 | 51 | 65 | 6.0 | 12.0 | 0.00 | 0.00 | 0.00 | 70 | 1018.7 |
| 20260503050030 | 52 | 74 | 8.0 | 14.0 | 0.00 | 0.00 | 0.00 | 67 | 1019.3 |
| 20260503044532 | 52 | 83 | 3.0 | 7.0 | 0.00 | 0.00 | 0.00 | 60 | 1019.4 |
| 20260503043030 | 53 | 316 | 5.0 | 9.0 | 0.00 | 0.00 | 0.00 | 55 | 1019.6 |
| 20260503041533 | 53 | 310 | 6.0 | 9.0 | 0.00 | 0.00 | 0.00 | 52 | 1019.3 |
| 20260503040028 | 55 | 79 | 3.0 | 8.0 | 0.00 | 0.00 | 0.00 | 50 | 1018.3 |
| 20260503034532 | 54 | 86 | 4.0 | 9.0 | 0.00 | 0.00 | 0.00 | 50 | 1018.1 |
| 20260503033036 | 54 | 65 | 3.0 | 6.0 | 0.00 | 0.00 | 0.00 | 49 | 1017.9 |
| 20260503031530 | 57 | 72 | 3.0 | 5.0 | 0.00 | 0.00 | 0.00 | 45 | 1017.8 |
| 20260503030047 | 59 | 76 | 3.0 | 6.0 | 0.00 | 0.00 | 0.00 | 43 | 1017.4 |
| 20260503024533 | 60 | 86 | 4.0 | 7.0 | 0.00 | 0.00 | 0.00 | 42 | 1017.3 |
| 20260503023033 | 60 | 76 | 3.0 | 8.0 | 0.00 | 0.00 | 0.00 | 42 | 1017.3 |
| 20260503021528 | 62 | 67 | 5.0 | 10.0 | 0.00 | 0.00 | 0.00 | 38 | 1017.3 |
| 20260503020028 | 64 | 63 | 5.0 | 9.0 | 0.00 | 0.00 | 0.00 | 36 | 1017.3 |
| 20260503014530 | 66 | 63 | 4.0 | 9.0 | 0.00 | 0.00 | 0.00 | 35 | 1017.3 |